User: anonymous   Login
Location: Champaign/Urbana Astronomical Society Observatory
(40.0333°N, 88.2833°W)
Time: 21:35:35
(UTC-05:00)
Language:

AO-73 - Orbit

View from above orbital plane
View from above orbital plane
View from above satellite
View from above satellite

Ground track
Ground track

The orbit data is extracted from the following two-line orbital elements,

1 39444U 13066AE  19295.76482183  .00000253  00000-0  37518-4 0  9993
2 39444  97.5596 304.2444 0057382 335.3357  24.5114 14.81993657318600
Epoch (UTC): 22 October 2019 18:21:20
Eccentricity: 0.0057382
inclination: 97.5596°
perigee height: 583 km
apogee height: 663 km
right ascension of ascending node: 304.2444°
argument of perigee: 335.3357°
revolutions per day: 14.81993657
mean anomaly at epoch: 24.5114°
orbit number at epoch: 31860

The dashed part of the orbit path shows where the satellite is in the earth's shadow,  

DLR